When you browse on this site, cookies collect data to enhance your experience and personalize the content and advertising you see.
Visit our Privacy Policy to learn more. By continuing to use the site, you agree to this use of cookies and data.

Hourly Weather Klagenfurt

Today, 12 July, Sunday

Time Temperature Precipitation Wind Pressure Humidity
00:00 +11°C° 0 mm 1 mps 694 mmHg 97%
01:00 +10°C° 0 mm 1 mps 693 mmHg 97%
02:00 +10°C° 0 mm 1 mps 693 mmHg 97%
03:00 +10°C° 0 mm 1 mps 693 mmHg 97%
04:00 +9°C° 0 mm 1 mps 693 mmHg 97%
05:00 +10°C° 0 mm 1 mps 694 mmHg 95%
06:00 +11°C° 0 mm 1 mps 694 mmHg 94%
07:00 +12°C° 0 mm 1 mps 695 mmHg 92%
08:00 +15°C° 0 mm 1 mps 695 mmHg 79%
09:00 +18°C° 0 mm 1 mps 695 mmHg 66%
10:00 +19°C° 0 mm 2 mps 696 mmHg 54%
11:00 +20°C° 0 mm 2 mps 696 mmHg 50%
12:00 +20°C° 0 mm 2 mps 696 mmHg 47%
13:00 +21°C° 0 mm 2 mps 696 mmHg 44%
14:00 +21°C° 0 mm 2 mps 696 mmHg 45%
15:00 +21°C° 0 mm 2 mps 695 mmHg 46%
16:00 +21°C° 0 mm 2 mps 695 mmHg 48%
17:00 +19°C° 0 mm 2 mps 695 mmHg 56%
18:00 +19°C° 0 mm 1 mps 695 mmHg 65%
19:00 +16°C° 0 mm 1 mps 695 mmHg 73%
20:00 +14°C° 0 mm 1 mps 695 mmHg 77%
21:00 +13°C° 0 mm 1 mps 695 mmHg 81%
22:00 +11°C° 0 mm 1 mps 694 mmHg 85%
23:00 +11°C° 0 mm 1 mps 694 mmHg 86%

Tomorrow, 13 July, Monday

Time Temperature Precipitation Wind Pressure Humidity
00:00 +10°C° 0 mm 1 mps 694 mmHg 87%
01:00 +10°C° 0 mm 1 mps 694 mmHg 87%
02:00 +9°C° 0 mm 1 mps 694 mmHg 88%
03:00 +9°C° 0 mm 1 mps 694 mmHg 89%
04:00 +9°C° 0 mm 1 mps 693 mmHg 90%
05:00 +10°C° 0 mm 1 mps 693 mmHg 83%
06:00 +12°C° 0 mm 1 mps 694 mmHg 77%
07:00 +14°C° 0 mm 1 mps 694 mmHg 71%
08:00 +16°C° 0 mm 1 mps 694 mmHg 64%
09:00 +18°C° 0 mm 1 mps 694 mmHg 57%
10:00 +19°C° 0 mm 2 mps 694 mmHg 50%
11:00 +20°C° 0 mm 2 mps 694 mmHg 47%
12:00 +21°C° 0 mm 2 mps 694 mmHg 44%
13:00 +23°C° 0 mm 2 mps 694 mmHg 42%
14:00 +21°C° 0 mm 2 mps 693 mmHg 43%
15:00 +21°C° 0 mm 2 mps 693 mmHg 44%
16:00 +21°C° 0 mm 2 mps 692 mmHg 45%
17:00 +20°C° 0 mm 2 mps 692 mmHg 54%
18:00 +19°C° 0 mm 1 mps 692 mmHg 64%
19:00 +16°C° 0 mm 1 mps 691 mmHg 73%
20:00 +15°C° 0 mm 1 mps 691 mmHg 75%
21:00 +13°C° 0 mm 1 mps 691 mmHg 77%
22:00 +12°C° 0 mm 1 mps 691 mmHg 79%
23:00 +11°C° 0 mm 1 mps 691 mmHg 79%

Day after tomorrow, 14 July, Tuesday

Time Temperature Precipitation Wind Pressure Humidity
00:00 +11°C° 0 mm 1 mps 691 mmHg 80%
01:00 +11°C° 0 mm 1 mps 691 mmHg 80%
02:00 +10°C° 0 mm 1 mps 690 mmHg 82%
03:00 +10°C° 0 mm 1 mps 690 mmHg 83%
04:00 +10°C° 0 mm 1 mps 690 mmHg 84%
05:00 +11°C° 0 mm 1 mps 690 mmHg 79%
06:00 +13°C° 0 mm 1 mps 690 mmHg 74%
07:00 +15°C° 0 mm 1 mps 691 mmHg 69%
08:00 +16°C° 0 mm 1 mps 691 mmHg 64%
09:00 +19°C° 0 mm 1 mps 691 mmHg 58%
10:00 +21°C° 0 mm 1 mps 691 mmHg 52%
11:00 +21°C° 0 mm 2 mps 691 mmHg 50%
12:00 +21°C° 0 mm 2 mps 691 mmHg 48%
13:00 +23°C° 0 mm 2 mps 691 mmHg 46%
14:00 +23°C° 0 mm 2 mps 691 mmHg 48%
15:00 +23°C° 0 mm 2 mps 690 mmHg 50%
16:00 +21°C° 0 mm 2 mps 690 mmHg 52%
17:00 +21°C° 0.1 mm 1 mps 690 mmHg 60%
18:00 +19°C° 0.1 mm 1 mps 690 mmHg 69%
19:00 +18°C° 0.1 mm 1 mps 690 mmHg 77%
20:00 +16°C° 0.1 mm 1 mps 690 mmHg 78%
21:00 +15°C° 0.1 mm 1 mps 690 mmHg 80%
22:00 +13°C° 0.1 mm 1 mps 689 mmHg 81%
23:00 +13°C° 0 mm 1 mps 689 mmHg 81%

15 July, Wednesday

Time Temperature Precipitation Wind Pressure Humidity
00:00 +13°C° 0 mm 1 mps 689 mmHg 82%
01:00 +11°C° 0 mm 0 mps 689 mmHg 82%
02:00 +11°C° 0 mm 0 mps 689 mmHg 83%
03:00 +11°C° 0 mm 0 mps 689 mmHg 83%
04:00 +11°C° 0 mm 0 mps 689 mmHg 83%
05:00 +12°C° 0 mm 0 mps 689 mmHg 80%
06:00 +14°C° 0 mm 0 mps 689 mmHg 78%
07:00 +15°C° 0 mm 0 mps 690 mmHg 75%
08:00 +17°C° 0 mm 0 mps 690 mmHg 68%
09:00 +21°C° 0 mm 1 mps 690 mmHg 62%
10:00 +23°C° 0 mm 1 mps 691 mmHg 55%
11:00 +23°C° 0.2 mm 1 mps 691 mmHg 54%
12:00 +24°C° 0.2 mm 1 mps 690 mmHg 53%
13:00 +24°C° 0.2 mm 1 mps 690 mmHg 52%
14:00 +24°C° 0.2 mm 2 mps 690 mmHg 53%
15:00 +24°C° 0.2 mm 2 mps 690 mmHg 55%
16:00 +23°C° 0.2 mm 2 mps 690 mmHg 56%
17:00 +22°C° 0.2 mm 1 mps 689 mmHg 65%
18:00 +20°C° 0.2 mm 1 mps 689 mmHg 73%
19:00 +19°C° 0.2 mm 1 mps 689 mmHg 82%
20:00 +18°C° 0.1 mm 1 mps 689 mmHg 84%
21:00 +16°C° 0.1 mm 1 mps 689 mmHg 85%
22:00 +15°C° 0.1 mm 1 mps 690 mmHg 87%
23:00 +15°C° 0 mm 1 mps 689 mmHg 88%

16 July, Thursday

Time Temperature Precipitation Wind Pressure Humidity
00:00 +14°C° 0 mm 1 mps 689 mmHg 88%
01:00 +14°C° 0 mm 1 mps 689 mmHg 89%
02:00 +13°C° 0 mm 1 mps 689 mmHg 89%
03:00 +13°C° 0 mm 1 mps 689 mmHg 89%
04:00 +13°C° 0 mm 1 mps 688 mmHg 89%
05:00 +13°C° 0 mm 0 mps 689 mmHg 87%
06:00 +14°C° 0 mm 0 mps 689 mmHg 85%
07:00 +15°C° 0 mm 0 mps 690 mmHg 82%
08:00 +18°C° 0.1 mm 1 mps 690 mmHg 79%
09:00 +19°C° 0.1 mm 1 mps 690 mmHg 76%
10:00 +20°C° 0.1 mm 1 mps 690 mmHg 73%
11:00 +20°C° 0.7 mm 1 mps 690 mmHg 76%
12:00 +20°C° 0.7 mm 1 mps 690 mmHg 80%
13:00 +20°C° 0.7 mm 1 mps 690 mmHg 84%
14:00 +19°C° 0.8 mm 1 mps 689 mmHg 87%
15:00 +19°C° 0.8 mm 1 mps 689 mmHg 91%
16:00 +18°C° 0.8 mm 1 mps 689 mmHg 94%
17:00 +16°C° 0.6 mm 1 mps 689 mmHg 95%
18:00 +16°C° 0.6 mm 1 mps 689 mmHg 96%
19:00 +15°C° 0.6 mm 1 mps 689 mmHg 96%
20:00 +14°C° 0.5 mm 0 mps 689 mmHg 97%
21:00 +14°C° 0.5 mm 0 mps 689 mmHg 97%
22:00 +13°C° 0.5 mm 0 mps 690 mmHg 97%
23:00 +13°C° 0.1 mm 0 mps 689 mmHg 97%

17 July, Friday

Time Temperature Precipitation Wind Pressure Humidity
00:00 +12°C° 0.1 mm 0 mps 689 mmHg 97%
01:00 +11°C° 0.1 mm 0 mps 689 mmHg 97%
02:00 +12°C° 0 mm 1 mps 689 mmHg 97%
03:00 +12°C° 0 mm 1 mps 689 mmHg 97%
04:00 +11°C° 0 mm 1 mps 689 mmHg 97%
05:00 +12°C° 0 mm 1 mps 689 mmHg 95%
06:00 +13°C° 0 mm 1 mps 689 mmHg 94%
07:00 +14°C° 0 mm 1 mps 690 mmHg 92%
08:00 +16°C° 0 mm 1 mps 690 mmHg 80%
09:00 +20°C° 0 mm 1 mps 691 mmHg 67%
10:00 +22°C° 0 mm 1 mps 691 mmHg 54%
11:00 +23°C° 0 mm 1 mps 691 mmHg 51%
12:00 +24°C° 0 mm 1 mps 691 mmHg 48%
13:00 +24°C° 0 mm 1 mps 691 mmHg 44%
14:00 +24°C° 0.1 mm 1 mps 691 mmHg 47%
15:00 +24°C° 0.1 mm 1 mps 691 mmHg 50%
16:00 +23°C° 0.1 mm 1 mps 690 mmHg 52%
17:00 +21°C° 0.2 mm 1 mps 690 mmHg 63%
18:00 +20°C° 0.2 mm 1 mps 690 mmHg 74%
19:00 +18°C° 0.2 mm 1 mps 690 mmHg 84%
20:00 +16°C° 0.2 mm 1 mps 690 mmHg 86%
21:00 +15°C° 0.2 mm 1 mps 690 mmHg 87%
22:00 +13°C° 0.2 mm 1 mps 691 mmHg 89%
23:00 +13°C° 0 mm 1 mps 691 mmHg 90%
Show more